When you browse on this site, cookies collect data to enhance your experience and personalize the content and advertising you see.
Visit our Privacy Policy to learn more. By continuing to use the site, you agree to this use of cookies and data.
  • En España
  • Lista de países
  • Para 7 días
  • Temperatura del agua
  • El tiempo en el mapa
  • Informadores
  • user-avatar
    Iniciar sesión

    Tiempo cada hora Buchach

    Hoy, 3 Junio, Miércoles

    Tiempo Temperatura Precipitaciones Viento Presión Humedad
    00:00 +6°C° 0.4 mm 4 mps 722 mmHg 96%
    01:00 +6°C° 0.4 mm 4 mps 722 mmHg 96%
    02:00 +6°C° 0 mm 4 mps 721 mmHg 97%
    03:00 +7°C° 0.7 mm 4 mps 721 mmHg 97%
    04:00 +7°C° 0.7 mm 4 mps 721 mmHg 97%
    05:00 +7°C° 0.7 mm 4 mps 721 mmHg 97%
    06:00 +7°C° 0.8 mm 4 mps 721 mmHg 96%
    07:00 +8°C° 0.8 mm 3 mps 721 mmHg 95%
    08:00 +8°C° 0.8 mm 3 mps 721 mmHg 95%
    09:00 +9°C° 0.3 mm 3 mps 722 mmHg 92%
    10:00 +9°C° 0.3 mm 3 mps 722 mmHg 90%
    11:00 +10°C° 0.3 mm 4 mps 722 mmHg 87%
    12:00 +11°C° 0.4 mm 4 mps 722 mmHg 85%
    13:00 +11°C° 0.4 mm 4 mps 722 mmHg 84%
    14:00 +11°C° 0.4 mm 4 mps 722 mmHg 82%
    15:00 +12°C° 0.1 mm 4 mps 721 mmHg 81%
    16:00 +12°C° 0.1 mm 4 mps 721 mmHg 80%
    17:00 +12°C° 0.1 mm 4 mps 721 mmHg 79%
    18:00 +11°C° 0 mm 3 mps 721 mmHg 82%
    19:00 +10°C° 0 mm 2 mps 721 mmHg 86%
    20:00 +11°C° 0 mm 1 mps 721 mmHg 90%
    21:00 +9°C° 0 mm 2 mps 721 mmHg 90%
    22:00 +9°C° 0 mm 2 mps 721 mmHg 90%
    23:00 +8°C° 0 mm 2 mps 721 mmHg 90%

    Mañana, 4 Junio, Jueves

    Tiempo Temperatura Precipitaciones Viento Presión Humedad
    00:00 +8°C° 0 mm 2 mps 721 mmHg 91%
    01:00 +7°C° 0 mm 2 mps 721 mmHg 91%
    02:00 +7°C° 0 mm 2 mps 721 mmHg 92%
    03:00 +8°C° 0 mm 1 mps 721 mmHg 92%
    04:00 +8°C° 0 mm 1 mps 721 mmHg 93%
    05:00 +8°C° 0 mm 1 mps 721 mmHg 93%
    06:00 +9°C° 0 mm 2 mps 721 mmHg 89%
    07:00 +10°C° 0 mm 2 mps 721 mmHg 84%
    08:00 +13°C° 0 mm 2 mps 721 mmHg 80%
    09:00 +14°C° 0.2 mm 3 mps 721 mmHg 75%
    10:00 +16°C° 0.2 mm 3 mps 721 mmHg 71%
    11:00 +17°C° 0.2 mm 4 mps 721 mmHg 66%
    12:00 +18°C° 0.4 mm 4 mps 721 mmHg 66%
    13:00 +18°C° 0.4 mm 4 mps 721 mmHg 67%
    14:00 +19°C° 0.4 mm 4 mps 721 mmHg 67%
    15:00 +19°C° 0.3 mm 3 mps 721 mmHg 68%
    16:00 +19°C° 0.3 mm 3 mps 720 mmHg 69%
    17:00 +19°C° 0.3 mm 2 mps 720 mmHg 70%
    18:00 +17°C° 0.2 mm 2 mps 720 mmHg 75%
    19:00 +16°C° 0.2 mm 3 mps 720 mmHg 81%
    20:00 +14°C° 0.2 mm 3 mps 720 mmHg 86%
    21:00 +13°C° 0.1 mm 3 mps 720 mmHg 88%
    22:00 +13°C° 0.1 mm 4 mps 720 mmHg 89%
    23:00 +12°C° 0.1 mm 4 mps 720 mmHg 91%

    Pasado mañana, 5 Junio, Viernes

    Tiempo Temperatura Precipitaciones Viento Presión Humedad
    00:00 +12°C° 0.1 mm 3 mps 720 mmHg 91%
    01:00 +13°C° 0.1 mm 3 mps 720 mmHg 92%
    02:00 +13°C° 0.1 mm 3 mps 719 mmHg 92%
    03:00 +13°C° 0 mm 3 mps 719 mmHg 91%
    04:00 +13°C° 0 mm 3 mps 719 mmHg 90%
    05:00 +13°C° 0 mm 3 mps 719 mmHg 89%
    06:00 +14°C° 0.1 mm 4 mps 720 mmHg 88%
    07:00 +14°C° 0.1 mm 4 mps 720 mmHg 88%
    08:00 +15°C° 0.1 mm 4 mps 720 mmHg 87%
    09:00 +17°C° 0.2 mm 4 mps 720 mmHg 85%
    10:00 +18°C° 0.2 mm 4 mps 721 mmHg 83%
    11:00 +18°C° 0.2 mm 4 mps 721 mmHg 81%
    12:00 +20°C° 0 mm 4 mps 721 mmHg 75%
    13:00 +22°C° 0 mm 5 mps 721 mmHg 68%
    14:00 +25°C° 0 mm 5 mps 721 mmHg 62%
    15:00 +25°C° 0.1 mm 5 mps 721 mmHg 65%
    16:00 +25°C° 0.1 mm 4 mps 721 mmHg 68%
    17:00 +25°C° 0.1 mm 3 mps 721 mmHg 72%
    18:00 +22°C° 0 mm 3 mps 721 mmHg 73%
    19:00 +21°C° 0 mm 3 mps 720 mmHg 75%
    20:00 +19°C° 0 mm 3 mps 720 mmHg 76%
    21:00 +18°C° 0 mm 2 mps 721 mmHg 73%
    22:00 +18°C° 0 mm 2 mps 721 mmHg 70%
    23:00 +17°C° 0 mm 2 mps 721 mmHg 67%

    6 Junio, Sábado

    Tiempo Temperatura Precipitaciones Viento Presión Humedad
    00:00 +17°C° 0 mm 2 mps 721 mmHg 68%
    01:00 +17°C° 0 mm 3 mps 721 mmHg 69%
    02:00 +17°C° 0 mm 4 mps 722 mmHg 70%
    03:00 +17°C° 0 mm 3 mps 722 mmHg 73%
    04:00 +16°C° 0 mm 3 mps 722 mmHg 76%
    05:00 +16°C° 0 mm 3 mps 722 mmHg 79%
    06:00 +16°C° 0 mm 2 mps 723 mmHg 79%
    07:00 +17°C° 0 mm 2 mps 723 mmHg 80%
    08:00 +19°C° 0 mm 1 mps 724 mmHg 81%
    09:00 +19°C° 0 mm 1 mps 725 mmHg 80%
    10:00 +19°C° 0 mm 1 mps 725 mmHg 79%
    11:00 +20°C° 0 mm 1 mps 726 mmHg 78%
    12:00 +21°C° 0.3 mm 1 mps 726 mmHg 74%
    13:00 +22°C° 0.3 mm 1 mps 726 mmHg 71%
    14:00 +23°C° 0.3 mm 1 mps 726 mmHg 67%
    15:00 +23°C° 0.7 mm 1 mps 726 mmHg 69%
    16:00 +23°C° 0.7 mm 2 mps 726 mmHg 71%
    17:00 +23°C° 0.7 mm 2 mps 726 mmHg 73%
    18:00 +20°C° 0.3 mm 2 mps 726 mmHg 77%
    19:00 +19°C° 0.3 mm 2 mps 726 mmHg 81%
    20:00 +18°C° 0.3 mm 2 mps 726 mmHg 85%
    21:00 +17°C° 0 mm 2 mps 726 mmHg 87%
    22:00 +16°C° 0 mm 2 mps 726 mmHg 89%
    23:00 +16°C° 0 mm 3 mps 727 mmHg 91%

    7 Junio, Domingo

    Tiempo Temperatura Precipitaciones Viento Presión Humedad
    00:00 +15°C° 0.2 mm 2 mps 727 mmHg 92%
    01:00 +15°C° 0.2 mm 2 mps 726 mmHg 92%
    02:00 +15°C° 0.2 mm 2 mps 726 mmHg 93%
    03:00 +15°C° 0.3 mm 2 mps 726 mmHg 94%
    04:00 +15°C° 0.3 mm 2 mps 726 mmHg 95%
    05:00 +15°C° 0.3 mm 2 mps 726 mmHg 95%
    06:00 +16°C° 0.1 mm 2 mps 726 mmHg 94%
    07:00 +17°C° 0.1 mm 3 mps 726 mmHg 93%
    08:00 +18°C° 0.1 mm 3 mps 727 mmHg 91%
    09:00 +19°C° 0 mm 3 mps 726 mmHg 89%
    10:00 +20°C° 0 mm 3 mps 726 mmHg 87%
    11:00 +20°C° 0 mm 3 mps 726 mmHg 84%
    12:00 +21°C° 0 mm 2 mps 726 mmHg 79%
    13:00 +23°C° 0 mm 2 mps 726 mmHg 74%
    14:00 +24°C° 0 mm 1 mps 726 mmHg 69%
    15:00 +24°C° 0.8 mm 1 mps 726 mmHg 71%
    16:00 +25°C° 0.8 mm 2 mps 726 mmHg 73%
    17:00 +25°C° 0.8 mm 2 mps 725 mmHg 75%
    18:00 +23°C° 0.3 mm 2 mps 726 mmHg 77%
    19:00 +21°C° 0.3 mm 2 mps 726 mmHg 80%
    20:00 +20°C° 0.3 mm 2 mps 726 mmHg 83%
    21:00 +20°C° 0 mm 1 mps 726 mmHg 84%
    22:00 +20°C° 0 mm 1 mps 727 mmHg 84%
    23:00 +19°C° 0 mm 1 mps 727 mmHg 85%

    8 Junio, Lunes

    Tiempo Temperatura Precipitaciones Viento Presión Humedad
    00:00 +18°C° 0 mm 1 mps 727 mmHg 87%
    01:00 +18°C° 0 mm 1 mps 727 mmHg 88%
    02:00 +16°C° 0 mm 1 mps 727 mmHg 89%
    03:00 +16°C° 0 mm 1 mps 727 mmHg 90%
    04:00 +16°C° 0 mm 1 mps 727 mmHg 91%
    05:00 +16°C° 0 mm 1 mps 727 mmHg 91%
    06:00 +18°C° 0 mm 1 mps 727 mmHg 89%
    07:00 +19°C° 0 mm 1 mps 727 mmHg 86%
    08:00 +21°C° 0 mm 1 mps 728 mmHg 84%
    09:00 +21°C° 0 mm 2 mps 728 mmHg 80%
    10:00 +23°C° 0 mm 2 mps 728 mmHg 76%
    11:00 +24°C° 0 mm 2 mps 728 mmHg 72%
    12:00 +25°C° 0.4 mm 3 mps 727 mmHg 73%
    13:00 +25°C° 0.4 mm 3 mps 727 mmHg 73%
    14:00 +25°C° 0.4 mm 4 mps 727 mmHg 74%
    15:00 +25°C° 0.7 mm 4 mps 727 mmHg 77%
    16:00 +23°C° 0.7 mm 4 mps 726 mmHg 80%
    17:00 +23°C° 0.7 mm 4 mps 726 mmHg 83%
    18:00 +22°C° 0.3 mm 4 mps 726 mmHg 83%
    19:00 +21°C° 0.3 mm 3 mps 726 mmHg 84%
    20:00 +20°C° 0.3 mm 3 mps 726 mmHg 85%
    21:00 +19°C° 0 mm 3 mps 726 mmHg 86%
    22:00 +19°C° 0 mm 2 mps 726 mmHg 86%
    23:00 +18°C° 0 mm 2 mps 726 mmHg 87%
    Mostrar más